When you browse on this site, cookies collect data to enhance your experience and personalize the content and advertising you see.
Visit our Privacy Policy to learn more. By continuing to use the site, you agree to this use of cookies and data.
  • In Belgien
  • Länderverzeichnis
  • Für 7 Tage
  • Wassertemperatur
  • Satellitenkarten
  • Wetterkarte
  • Widgets
  • user-avatar
    Anmelden

    Stündliche Wetter Zaharovo

    Heute, 26 Mai, Sonntag

    Zeit Temperatur Niederschläge Wind Luftdruck Luftfeuchtigkeit
    00:00 +12°C° 0 mm 2 m/S 733 mmHg 97%
    01:00 +10°C° 0 mm 2 m/S 733 mmHg 97%
    02:00 +10°C° 0 mm 1 m/S 732 mmHg 96%
    03:00 +10°C° 0 mm 1 m/S 733 mmHg 95%
    04:00 +11°C° 0 mm 1 m/S 733 mmHg 95%
    05:00 +10°C° 0 mm 2 m/S 733 mmHg 94%
    06:00 +12°C° 0 mm 2 m/S 733 mmHg 86%
    07:00 +14°C° 0 mm 2 m/S 733 mmHg 79%
    08:00 +14°C° 0 mm 3 m/S 734 mmHg 72%
    09:00 +16°C° 0 mm 3 m/S 733 mmHg 65%
    10:00 +17°C° 0 mm 3 m/S 733 mmHg 58%
    11:00 +18°C° 0 mm 3 m/S 733 mmHg 51%
    12:00 +19°C° 0 mm 3 m/S 733 mmHg 49%
    13:00 +19°C° 0 mm 3 m/S 733 mmHg 48%
    14:00 +20°C° 0 mm 3 m/S 733 mmHg 46%
    15:00 +19°C° 0 mm 3 m/S 733 mmHg 49%
    16:00 +19°C° 0 mm 3 m/S 733 mmHg 52%
    17:00 +18°C° 0 mm 3 m/S 732 mmHg 55%
    18:00 +17°C° 0 mm 3 m/S 732 mmHg 62%
    19:00 +14°C° 0 mm 3 m/S 732 mmHg 70%
    20:00 +13°C° 0 mm 2 m/S 732 mmHg 78%
    21:00 +11°C° 0 mm 3 m/S 732 mmHg 81%
    22:00 +11°C° 0 mm 3 m/S 732 mmHg 83%
    23:00 +10°C° 0 mm 3 m/S 732 mmHg 86%

    Morgen, 27 Mai, Montag

    Zeit Temperatur Niederschläge Wind Luftdruck Luftfeuchtigkeit
    00:00 +9°C° 0 mm 3 m/S 733 mmHg 87%
    01:00 +9°C° 0 mm 3 m/S 733 mmHg 87%
    02:00 +8°C° 0 mm 3 m/S 733 mmHg 88%
    03:00 +9°C° 0 mm 3 m/S 733 mmHg 86%
    04:00 +8°C° 0 mm 4 m/S 733 mmHg 84%
    05:00 +8°C° 0 mm 4 m/S 733 mmHg 83%
    06:00 +10°C° 0 mm 4 m/S 734 mmHg 82%
    07:00 +10°C° 0 mm 4 m/S 734 mmHg 81%
    08:00 +11°C° 0 mm 4 m/S 734 mmHg 81%
    09:00 +11°C° 0.1 mm 4 m/S 734 mmHg 81%
    10:00 +12°C° 0.1 mm 4 m/S 734 mmHg 81%
    11:00 +12°C° 0.1 mm 5 m/S 734 mmHg 81%
    12:00 +13°C° 0.1 mm 4 m/S 734 mmHg 82%
    13:00 +13°C° 0.1 mm 4 m/S 735 mmHg 82%
    14:00 +14°C° 0.1 mm 4 m/S 735 mmHg 82%
    15:00 +14°C° 0.1 mm 4 m/S 735 mmHg 83%
    16:00 +14°C° 0.1 mm 3 m/S 735 mmHg 85%
    17:00 +16°C° 0.1 mm 3 m/S 735 mmHg 86%
    18:00 +14°C° 0.7 mm 3 m/S 735 mmHg 89%
    19:00 +14°C° 0.7 mm 3 m/S 735 mmHg 92%
    20:00 +14°C° 0.7 mm 3 m/S 735 mmHg 94%
    21:00 +14°C° 0.1 mm 3 m/S 735 mmHg 95%
    22:00 +14°C° 0.1 mm 3 m/S 736 mmHg 95%
    23:00 +13°C° 0.1 mm 3 m/S 736 mmHg 96%

    übermorgen, 28 Mai, Dienstag

    Zeit Temperatur Niederschläge Wind Luftdruck Luftfeuchtigkeit
    00:00 +13°C° 0 mm 3 m/S 736 mmHg 96%
    01:00 +13°C° 0 mm 3 m/S 736 mmHg 96%
    02:00 +13°C° 0 mm 3 m/S 736 mmHg 97%
    03:00 +14°C° 0 mm 2 m/S 737 mmHg 97%
    04:00 +14°C° 0 mm 2 m/S 737 mmHg 96%
    05:00 +14°C° 0 mm 2 m/S 737 mmHg 96%
    06:00 +16°C° 0 mm 2 m/S 738 mmHg 92%
    07:00 +17°C° 0 mm 3 m/S 738 mmHg 88%
    08:00 +19°C° 0 mm 3 m/S 738 mmHg 83%
    09:00 +20°C° 0.1 mm 3 m/S 738 mmHg 74%
    10:00 +22°C° 0.1 mm 3 m/S 738 mmHg 65%
    11:00 +25°C° 0.1 mm 4 m/S 738 mmHg 56%
    12:00 +25°C° 0.3 mm 4 m/S 738 mmHg 58%
    13:00 +25°C° 0.3 mm 4 m/S 738 mmHg 61%
    14:00 +25°C° 0.3 mm 4 m/S 738 mmHg 63%
    15:00 +24°C° 0.4 mm 3 m/S 738 mmHg 70%
    16:00 +22°C° 0.4 mm 3 m/S 738 mmHg 76%
    17:00 +21°C° 0.4 mm 3 m/S 737 mmHg 83%
    18:00 +20°C° 0.9 mm 3 m/S 737 mmHg 86%
    19:00 +20°C° 0.9 mm 3 m/S 737 mmHg 90%
    20:00 +19°C° 0.9 mm 3 m/S 737 mmHg 93%
    21:00 +19°C° 0.3 mm 3 m/S 737 mmHg 93%
    22:00 +18°C° 0.3 mm 3 m/S 737 mmHg 93%
    23:00 +18°C° 0.3 mm 4 m/S 737 mmHg 92%

    29 Mai, Mittwoch

    Zeit Temperatur Niederschläge Wind Luftdruck Luftfeuchtigkeit
    00:00 +18°C° 0 mm 3 m/S 737 mmHg 93%
    01:00 +17°C° 0 mm 3 m/S 738 mmHg 93%
    02:00 +17°C° 0 mm 3 m/S 738 mmHg 94%
    03:00 +17°C° 0 mm 3 m/S 738 mmHg 93%
    04:00 +17°C° 0 mm 3 m/S 738 mmHg 93%
    05:00 +17°C° 0 mm 3 m/S 738 mmHg 92%
    06:00 +19°C° 0 mm 4 m/S 738 mmHg 85%
    07:00 +21°C° 0 mm 4 m/S 738 mmHg 78%
    08:00 +22°C° 0 mm 5 m/S 739 mmHg 71%
    09:00 +25°C° 0 mm 5 m/S 739 mmHg 63%
    10:00 +26°C° 0 mm 5 m/S 739 mmHg 55%
    11:00 +27°C° 0 mm 6 m/S 739 mmHg 47%
    12:00 +28°C° 0 mm 6 m/S 739 mmHg 44%
    13:00 +28°C° 0 mm 6 m/S 739 mmHg 41%
    14:00 +28°C° 0 mm 6 m/S 739 mmHg 38%
    15:00 +28°C° 0 mm 6 m/S 739 mmHg 42%
    16:00 +27°C° 0 mm 5 m/S 738 mmHg 45%
    17:00 +27°C° 0 mm 5 m/S 738 mmHg 49%
    18:00 +25°C° 0 mm 4 m/S 738 mmHg 57%
    19:00 +22°C° 0 mm 4 m/S 738 mmHg 65%
    20:00 +20°C° 0 mm 3 m/S 738 mmHg 72%
    21:00 +20°C° 0 mm 3 m/S 739 mmHg 76%
    22:00 +19°C° 0 mm 3 m/S 739 mmHg 79%
    23:00 +19°C° 0 mm 3 m/S 739 mmHg 82%

    30 Mai, Donnerstag

    Zeit Temperatur Niederschläge Wind Luftdruck Luftfeuchtigkeit
    00:00 +18°C° 0 mm 3 m/S 739 mmHg 85%
    01:00 +18°C° 0 mm 3 m/S 739 mmHg 87%
    02:00 +18°C° 0 mm 3 m/S 739 mmHg 90%
    03:00 +18°C° 0 mm 3 m/S 739 mmHg 89%
    04:00 +18°C° 0 mm 3 m/S 739 mmHg 89%
    05:00 +19°C° 0 mm 3 m/S 739 mmHg 88%
    06:00 +20°C° 0.1 mm 3 m/S 740 mmHg 84%
    07:00 +21°C° 0.1 mm 3 m/S 740 mmHg 81%
    08:00 +22°C° 0.1 mm 3 m/S 740 mmHg 77%
    09:00 +22°C° 1.3 mm 3 m/S 740 mmHg 78%
    10:00 +22°C° 1.3 mm 4 m/S 740 mmHg 79%
    11:00 +23°C° 1.3 mm 4 m/S 740 mmHg 80%
    12:00 +22°C° 1.5 mm 4 m/S 740 mmHg 81%
    13:00 +22°C° 1.5 mm 3 m/S 740 mmHg 82%
    14:00 +22°C° 1.5 mm 3 m/S 740 mmHg 83%
    15:00 +21°C° 0.9 mm 3 m/S 740 mmHg 86%
    16:00 +20°C° 0.9 mm 3 m/S 740 mmHg 90%
    17:00 +19°C° 0.9 mm 2 m/S 740 mmHg 93%
    18:00 +18°C° 0.2 mm 2 m/S 741 mmHg 94%
    19:00 +17°C° 0.2 mm 2 m/S 741 mmHg 95%
    20:00 +16°C° 0.2 mm 2 m/S 741 mmHg 96%
    21:00 +15°C° 0 mm 2 m/S 741 mmHg 96%
    22:00 +15°C° 0 mm 2 m/S 742 mmHg 96%
    23:00 +14°C° 0 mm 2 m/S 742 mmHg 96%

    31 Mai, Freitag

    Zeit Temperatur Niederschläge Wind Luftdruck Luftfeuchtigkeit
    00:00 +14°C° 0.1 mm 2 m/S 742 mmHg 96%
    01:00 +13°C° 0.1 mm 2 m/S 742 mmHg 96%
    02:00 +13°C° 0.1 mm 2 m/S 742 mmHg 96%
    03:00 +11°C° 0.3 mm 3 m/S 742 mmHg 95%
    04:00 +10°C° 0.3 mm 3 m/S 742 mmHg 94%
    05:00 +9°C° 0.3 mm 3 m/S 742 mmHg 93%
    06:00 +9°C° 0.2 mm 3 m/S 742 mmHg 92%
    07:00 +9°C° 0.2 mm 3 m/S 743 mmHg 90%
    08:00 +9°C° 0.2 mm 2 m/S 743 mmHg 89%
    09:00 +12°C° 0 mm 2 m/S 743 mmHg 79%
    10:00 +14°C° 0 mm 2 m/S 743 mmHg 69%
    11:00 +16°C° 0 mm 2 m/S 743 mmHg 59%
    12:00 +17°C° 0 mm 2 m/S 742 mmHg 56%
    13:00 +18°C° 0 mm 2 m/S 742 mmHg 53%
    14:00 +20°C° 0 mm 1 m/S 742 mmHg 50%
    15:00 +20°C° 0 mm 1 m/S 742 mmHg 50%
    16:00 +20°C° 0 mm 1 m/S 741 mmHg 51%
    17:00 +18°C° 0 mm 0 m/S 741 mmHg 52%
    18:00 +17°C° 0 mm 0 m/S 741 mmHg 59%
    19:00 +16°C° 0 mm 1 m/S 741 mmHg 67%
    20:00 +14°C° 0 mm 1 m/S 741 mmHg 74%
    21:00 +14°C° 0 mm 2 m/S 741 mmHg 75%
    22:00 +12°C° 0 mm 3 m/S 741 mmHg 76%
    23:00 +11°C° 0 mm 3 m/S 741 mmHg 77%
    Mehr zeigen